User: anonymous   Login
Location: Unspecified
(0.0000°N, 0.0000°E)
Time: 10:34:09
(UTC+00:00)
Language:

MUOS 2 - Orbit

View from above orbital plane
View from above orbital plane
View from above satellite
View from above satellite

Ground track
Ground track

The orbit data is extracted from the following two-line orbital elements,

1 39206U 13036A   18181.44758202 0.00000000  00000-0  00000-0 0    07
2 39206   3.2484 339.5899 0056820   0.6297 359.4037  1.00270000    05
Epoch (UTC): 30 June 2018 10:44:31
Eccentricity: 0.0056820
inclination: 3.2484°
perigee height: 35547 km
apogee height: 36026 km
right ascension of ascending node: 339.5899°
argument of perigee: 0.6297°
revolutions per day: 1.00270000
mean anomaly at epoch: 359.4037°
orbit number at epoch: 0

The dashed part of the orbit path shows where the satellite is in the earth's shadow,  

DLR